Vertical_Velocity
0 0 0 1 0 0 0 0 0 0 0 0 0 0 0 0 0 0 0 0 0 -0 -0 -0 -0 -0 -0 -0 -0 -0 -0 -0 -0 -0 0 0 0 0 0 0 0 0 -0 -0 -0 -0 -0 -0 -1 -1 -1 -0 -1 -1 -1 -1 -1 -1 -1 -1 -1 -1 -1 -1 -1 -1 -1 -1 -1 -1 -1 -1 -0 -0 -0 -0 -0 -0 -0 -0 -0 -1 -1 -1 -1 -1 -1 -1 -1 -1 -1 -1 -1 -1 -1 -1 -1 -1 -1 -1 -1 -1 -1
0 0 0 0 0 0 0 0 0 0 0 0 0 0 0 0 0 0 0 0 0 -0 -0 -0 0 0 0 -0 -0 -0 -0 -0 -0 -0 0 -0 -0 -0 0 0 0 0 -0 -0 -0 -0 -0 -0 -1 -1 -0 -0 -0 -1 -1 -1 -1 -1 -1 -1 -1 -1 -1 -1 -0 -1 -1 -1 -0 -1 -1 -1 -1 -0 -0 -0 -0 -0 -0 -1 -1 -1 -1 -1 -1 -1 -1 -1 -1 -1 -1 -1 -1 -1 -1 -1 -1 -1 -0 -1 -1 -1 -1
0 1 1 0 0 0 0 0 0 0 0 0 0 0 0 0 0 0 0 0 0 -0 -0 -0 -0 -0 -0 -0 -0 -0 -0 -0 -0 -0 -0 -0 -0 -0 -0 0 0 0 -0 -0 -0 -0 -0 -1 -1 -1 -1 -0 -0 -1 -1 -1 -1 -0 -1 -1 -1 -1 -1 -0 -0 -0 -1 -0 -0 -1 -1 -1 -1 -1 -1 -0 -0 -0 -0 -1 -1 -1 -1 -1 -1 -1 -1 -1 -1 -1 -1 -1 -1 -1 -1 -1 -1 -1 -0 -1 -1 -1 -1
1 1 1 0 0 0 0 0 0 0 0 0 0 0 0 0 0 0 0 0 -0 -0 -0 -0 -0 -0 -0 -0 -0 -0 -1 -1 -1 -1 -1 -1 -0 -0 -0 0 0 0 -0 -0 -0 -0 -0 -0 -1 -1 -1 -1 -1 -1 -1 -1 -1 -0 -0 -1 -1 -1 -1 -0 -0 -0 -1 -0 -0 -1 -1 -1 -1 -1 -1 -1 -1 -1 -0 -1 -1 -1 -1 -1 -1 -1 -1 -1 -1 -1 -1 -1 -1 -1 -1 -1 -1 -1 -1 -1 -1 -1 -1
1 1 1 0 0 0 0 0 0 0 0 0 -0 -0 0 0 0 0 0 0 0 0 -0 -0 -0 -0 -0 -0 -1 -1 -1 -1 -1 -1 -1 -0 -0 -0 -0 -0 -0 -0 -0 -0 -0 -0 -0 -0 -1 -1 -1 -1 -1 -1 -1 -1 -1 -1 -1 -0 -0 -0 -0 -0 -0 -1 -1 -0 -0 -1 -1 -1 -1 -1 -1 -1 -1 -1 -1 -1 -1 -1 -1 -1 -1 -1 -1 -1 -1 -1 -1 -1 -1 -1 -1 -1 -1 -1 -1 -1 -1 -1 -1
1 1 1 0 0 0 0 0 0 0 0 -0 -0 -0 -0 -0 0 0 0 0 0 0 -0 -0 -0 -0 -0 -1 -1 -1 -1 -1 -1 -1 -0 -0 -0 -0 -0 -0 -0 -0 -0 -0 -0 -0 -0 -0 -1 -1 -1 -0 -1 -1 -0 -1 -1 -1 -1 -1 -0 -0 -0 -0 -0 -1 -1 -1 -1 -1 -1 -1 -1 -1 -1 -1 -1 -1 -1 -1 -1 -1 -1 -1 -1 -1 -1 -1 -1 -1 -1 -1 -1 -1 -1 -1 -1 -1 -1 -1 -1 -1 -1
1 1 1 0 0 0 0 0 0 0 0 -0 -0 -0 -0 -0 -0 0 1 1 0 0 -0 -0 -1 -1 -1 -1 -1 -0 -0 -0 -0 -1 -1 -0 -0 -0 -0 -0 -0 -0 -0 -0 -0 -0 -0 -0 -0 -0 0 0 -0 -1 -0 -0 -0 -1 -0 -1 -0 -0 -0 -0 -0 -0 -0 -1 -0 -0 -1 -1 -1 -1 -1 -1 -1 -1 -1 -1 -1 -1 -1 -1 -1 -1 -1 -1 -1 -1 -1 -1 -0 -0 -0 -1 -1 -1 -1 -1 -1 -1 -1
1 1 1 0 0 0 0 0 0 0 -0 -0 -0 -0 -0 -0 -0 0 0 0 0 0 -0 -0 -1 -1 -1 -1 -1 -0 -0 -0 -0 -0 -0 -0 -0 -0 -0 -1 -0 -0 -0 -0 -0 -0 -0 0 0 0 0 0 -0 -0 0 -0 -0 -0 -0 -0 -0 -0 -0 -0 -0 -0 -0 -0 -0 -0 -1 -1 -1 -1 -1 -1 -1 -1 -1 -1 -1 -1 -1 -1 -1 -1 -1 -1 -1 -1 -1 -1 -0 -0 -0 -1 -0 -0 -1 -1 -1 -1 -1
1 1 1 1 0 0 0 0 0 -0 -0 -0 -0 -1 -1 -0 -0 0 0 0 -0 -0 -1 -1 -1 -1 -1 -1 -1 -0 -0 -1 -1 -0 -0 -0 -0 -0 -0 -0 -0 -0 -0 -0 -0 -0 -0 0 0 0 0 0 0 0 0 -0 0 0 -0 0 0 -0 0 0 -0 -0 -0 -0 -0 -0 -1 -1 -1 -1 -1 -1 -1 -1 -1 -1 -0 -0 -0 -0 -1 -1 -1 -1 -1 -1 -1 -1 -0 -0 -1 -1 -1 0 -0 -1 -1 -1 -1
1 1 1 1 0 0 0 0 -0 -0 -0 -0 -1 -1 -1 -0 -0 -0 -0 -0 -0 -0 -1 -1 -1 -1 -1 -1 -0 -0 -0 -1 -1 -1 -0 -1 -1 -0 -0 -0 -0 -0 -0 -0 0 0 0 0 0 0 0 0 0 0 1 0 0 1 0 1 0 0 0 -0 -0 -0 -1 -0 -0 -0 -1 -1 -1 -1 -1 -1 -1 -1 -1 -1 -1 -1 -1 -1 -1 -1 -1 -1 -1 -1 -1 -1 -1 -0 -1 -1 -1 -1 -0 -0 -1 -1 -1
1 1 1 1 1 0 0 0 -0 -0 -0 -0 -1 -1 -1 -1 -1 -0 -0 -0 -1 -1 -1 -1 -1 -1 -0 -0 -0 -0 -0 -0 -1 -1 -1 -1 -1 -0 -0 -0 -0 -0 -0 -0 0 0 0 0 0 0 0 0 0 0 1 0 0 0 1 1 0 0 -0 -0 -0 -0 -0 -0 -0 -1 -1 -1 -1 -1 -1 -1 -1 -1 -1 -1 -1 -1 -1 -1 -1 -1 -1 -1 -1 -1 -1 -1 -1 -1 -1 -1 -1 -1 -1 -1 -1 -1 -1
1 1 1 1 1 0 0 0 -0 -0 -0 -0 -1 -1 -1 -1 -1 -0 -0 -1 -1 -1 -1 -0 -0 -0 -0 -0 -0 -0 -0 -0 -0 -0 -1 -0 -0 -0 -0 -0 -0 -0 -0 0 0 0 0 0 0 0 1 1 1 0 1 0 0 0 0 0 0 0 0 -0 -0 -0 -0 -0 -0 -0 -0 -1 -1 -1 -1 -1 -1 -1 -1 -1 -1 -1 -1 -1 -1 -1 -1 -1 -1 -1 -1 -1 -1 -1 -1 -1 -1 -1 -1 -1 -1 -1 -1
1 1 1 1 1 0 0 0 0 -0 -0 -0 -1 -1 -1 -0 -0 -0 -1 -1 -1 -1 -0 -0 -0 -0 -0 -0 0 0 -0 -0 -0 -0 -0 -0 -0 -0 -0 -0 -0 -0 -0 -0 0 0 0 0 0 0 1 1 1 0 0 0 0 -0 -0 0 0 1 0 0 -0 0 0 0 0 -0 -0 -1 -1 -1 -1 -1 -1 -1 -1 -1 -1 -1 -1 -1 -1 -1 -1 -1 -1 -1 -1 -1 -1 -1 -1 -1 -1 -1 -1 -1 -1 -1 -1
1 1 1 1 1 1 0 0 0 0 -0 -1 -1 -1 -0 -0 -0 -0 -1 -1 -1 -0 -0 -0 -0 -0 0 0 0 0 0 0 0 -0 -0 0 0 0 0 -0 -0 -0 -0 0 0 0 0 0 0 0 1 1 0 0 0 1 0 -0 -0 0 0 0 0 0 -0 -0 0 0 0 -0 -0 -1 -1 -1 -1 -1 -1 -1 -1 -1 -2 -2 -2 -2 -1 -1 -1 -1 -1 -1 -1 -1 -1 -1 -1 -1 -1 -1 -1 -1 -1 -1 -1
1 1 1 1 1 1 1 1 0 -0 -1 -1 -1 -1 -0 -0 -0 -0 -0 -0 -0 -0 -0 -0 -0 -0 -0 0 0 0 0 0 0 0 0 0 0 0 0 0 0 0 0 0 0 0 0 0 0 1 1 1 1 0 0 0 0 -0 -0 -0 -0 -0 0 0 0 -0 -0 -0 -0 -0 -0 -0 -1 -1 -1 -1 -1 -1 -1 -1 -1 -2 -2 -2 -2 -1 -1 -1 -1 -1 -1 -1 -1 -1 -1 -1 -1 -1 -1 -1 -1 -1 -1
1 1 1 1 1 1 1 1 0 -0 -1 -1 -0 -0 -0 -0 0 0 1 0 0 0 0 0 -0 -0 -0 0 0 0 0 0 0 0 0 0 0 0 0 0 0 0 0 0 0 -0 -0 0 0 1 1 1 1 0 0 -0 -0 -0 -0 -0 -0 -0 -0 -0 -0 -0 -0 -1 -1 -0 -0 -0 -0 -1 -1 -1 -1 -1 -1 -1 -1 -1 -1 -1 -1 -1 -1 -1 -1 -1 -1 -1 -1 -1 -1 -1 -1 -1 -1 -1 -1 -1 -1
1 1 1 1 2 2 2 1 0 -0 -0 -0 -0 -0 -0 0 0 1 1 1 0 1 1 1 0 0 0 0 0 0 0 0 0 0 0 0 0 0 0 0 0 0 0 0 -0 -0 -0 0 0 0 0 1 1 1 0 0 -0 -0 -0 -0 -0 -1 -1 -1 -0 -0 -0 -0 -1 -0 -0 -0 -0 -0 -0 -1 -1 -1 -1 -1 -1 -1 -1 -1 -1 -1 -1 -1 -1 -1 -1 -1 -1 -1 -1 -1 -1 -1 -1 -1 -1 -1 -1
1 1 1 1 2 2 1 1 0 0 -0 -0 -0 -0 0 0 1 1 1 1 1 1 1 1 1 1 0 0 0 -0 -0 -0 -0 0 -0 -0 -0 -0 -0 0 0 0 0 0 -0 -0 -0 -0 -0 0 0 0 0 1 0 0 0 -0 -0 -0 -0 -1 -1 -1 -1 -0 -0 -0 -0 -0 -0 0 0 0 0 -0 -0 -0 -0 -0 -0 -0 -1 -1 -1 -1 -1 -1 -1 -1 -1 -1 -1 -1 -1 -1 -1 -1 -1 -1 -1 -1 -1
1 1 1 1 1 1 1 1 1 0 -0 -0 0 0 1 1 1 1 1 1 1 1 1 1 1 1 1 0 0 0 0 -0 -0 0 -0 -0 -0 -0 -0 -0 -0 -0 -0 -0 -0 -0 -0 -0 -0 -0 -0 0 0 0 0 0 0 0 0 -0 -0 -0 -1 -1 -0 -0 -0 -0 0 0 0 0 0 0 0 0 0 -0 -0 -0 -0 -0 -0 -1 -1 -1 -1 -1 -1 -1 -1 -1 -1 -1 -1 -1 -1 -1 -1 -1 -1 -1 -1
1 1 0 0 0 0 1 1 1 0 0 0 1 1 1 1 1 1 1 1 1 2 1 1 1 1 1 1 1 0 0 0 0 0 0 -0 -0 -0 -0 -0 -0 -0 -0 -0 -0 -0 -0 -1 -1 -0 -0 -0 -0 0 0 0 1 1 1 0 0 0 -0 -0 -0 -0 -0 -0 0 0 0 0 0 0 0 0 0 0 0 -0 -0 -0 -0 -0 -0 -0 -1 -1 -1 -1 -0 -1 -1 -1 -1 -1 -1 -1 -1 -1 -1 -1 -1
2 1 -0 -1 -1 -0 0 0 0 0 1 1 1 1 1 1 1 1 1 2 2 2 2 1 1 1 1 1 1 1 1 1 0 0 0 0 -0 -0 -0 -1 -1 -1 -0 -0 -0 -0 -1 -1 -1 -1 -1 -1 -0 -0 -0 0 0 1 1 1 1 1 1 0 0 -0 -0 -0 -0 -0 -0 -0 0 0 0 0 0 0 0 0 -0 -0 -0 -0 -0 -0 -0 -0 -0 -0 -0 -0 -0 -0 -0 -0 -0 -1 -1 -1 -1 -1 -1
1 0 -1 -1 -1 -1 -0 -0 -0 0 1 1 1 1 1 1 1 1 2 2 2 2 2 1 1 1 1 2 2 1 1 1 1 0 0 0 0 -0 -0 -0 -1 -1 -1 -1 -1 -1 -1 -1 -1 -1 -1 -1 -1 -0 -0 -0 0 0 0 1 1 1 1 1 1 0 -0 -0 -0 -0 -0 -0 0 0 -0 -0 -0 -0 0 0 0 0 -0 -0 -0 -0 -0 -0 -0 -0 -0 -0 -0 -0 -0 -0 -0 -0 -0 -1 -1 -1 -1
0 -0 -1 -1 -1 -1 -1 -0 -0 0 1 1 1 1 1 1 1 2 2 2 2 2 2 2 2 2 2 2 2 1 1 1 1 0 0 0 0 -0 -0 -0 -0 -1 -1 -1 -1 -1 -1 -1 -1 -1 -1 -1 -1 -0 -1 -0 -0 -0 0 0 0 1 1 1 1 1 0 0 -0 -0 -0 -0 0 0 0 -0 -0 -1 -1 -0 0 0 0 -0 -0 -0 -0 -0 -0 -1 -1 -1 -1 -1 -1 -0 -0 -0 -0 -1 -1 -1 -1
-0 -0 -0 0 -0 -0 -1 0 1 1 1 1 1 1 1 1 1 1 2 2 2 2 2 2 2 2 2 2 1 1 1 1 1 0 0 0 -0 -0 -0 -0 -0 -1 -1 -1 -1 -1 -1 -1 -1 -1 -1 -1 -1 -1 -1 -0 -0 -0 -0 -0 -0 -0 0 0 1 1 0 0 0 -0 -0 -0 -0 -0 0 0 -0 -1 -1 -1 -1 -0 -0 -0 -0 -0 -0 -0 -0 -0 -1 -1 -1 -1 -1 -1 -1 -1 -1 -1 -1 -1 -1
-1 -1 0 0 0 -0 -0 1 1 1 1 1 1 1 1 1 1 1 2 2 2 2 3 3 3 2 2 2 2 1 1 1 1 0 0 0 -0 -0 -0 -0 -0 -0 -1 -1 -1 -1 -1 -1 -1 -1 -1 -1 -1 -1 -1 -1 -1 -1 -1 -1 -1 -1 -1 -0 -0 0 0 -0 -0 0 0 -0 -0 -0 -0 -0 -0 -0 -1 -1 -1 -1 -0 -0 -0 -0 -0 -0 -0 -0 -1 -1 -1 -1 -1 -1 -1 -1 -1 -1 -1 -1 -1
-1 -1 -0 -0 0 0 1 1 1 1 1 1 1 1 2 1 1 1 1 2 2 2 3 3 3 3 3 2 2 2 1 1 1 1 0 0 0 0 -0 -0 -0 -0 -1 -1 -1 -1 -1 -1 -1 -1 -1 -1 -1 -1 -1 -1 -1 -1 -1 -1 -1 -1 -1 -1 -1 -0 -0 -0 -0 -0 0 0 -0 -0 -1 -1 -0 -0 -1 -1 -1 -1 -1 -1 -1 -1 -1 -1 -1 -1 -1 -1 -1 -0 -1 -1 -1 -1 -1 -1 -1 -1 -1
-1 -1 -1 -1 -0 0 1 1 1 1 1 1 1 1 1 1 1 1 1 1 2 2 2 2 3 3 3 2 2 2 1 1 1 1 1 1 0 0 0 -0 -0 -0 -1 -1 -1 -1 -1 -1 -1 -1 -1 -1 -1 -1 -1 -1 -1 -1 -1 -1 -1 -1 -1 -1 -1 -1 -1 -1 -1 -0 -0 0 -0 -0 -1 -1 -1 -1 -1 -1 -1 -1 -1 -1 -1 -1 -1 -1 -1 -1 -2 -1 -1 -0 -0 -1 -1 -1 -1 -1 -1 -1 -1
-1 -1 -2 -1 -0 0 1 1 1 1 1 1 1 1 1 1 1 1 1 1 1 1 2 2 2 2 2 2 2 1 1 1 1 1 1 1 0 0 0 -0 -0 -0 -1 -1 -1 -1 -1 -1 -1 -1 -1 -1 -1 -1 -1 -1 -1 -1 -1 -1 -1 -1 -1 -1 -1 -1 -1 -1 -1 -1 -1 -0 -0 -0 -0 -0 -0 -1 -1 -1 -1 -1 -0 -0 -0 0 0 0 -0 -1 -2 -2 -1 -1 -1 -1 -1 -1 -1 -1 -1 -1 -1
-1 -1 -1 -0 0 1 1 1 1 1 1 1 1 1 1 1 1 1 1 1 1 1 1 1 1 2 2 1 1 1 1 1 0 0 1 1 0 0 0 -0 -0 -1 -1 -1 -1 -1 -1 -1 -1 -1 -2 -2 -1 -1 -1 -1 -1 -1 -1 -1 -1 -1 -1 -1 -2 -2 -2 -2 -2 -1 -1 -1 -1 -0 -0 -0 -0 -0 -1 -1 -1 -0 -0 -0 0 0 1 1 0 -0 -1 -1 -1 -1 -1 -1 -1 -1 -1 -1 -1 -1 -1
0 0 0 1 1 1 1 1 1 1 1 1 1 1 1 1 1 1 1 1 1 1 1 1 1 1 1 1 1 1 1 0 0 0 0 0 0 0 -0 -0 -1 -1 -1 -1 -1 -1 -1 -2 -2 -2 -2 -2 -2 -2 -2 -1 -1 -1 -1 -1 -1 -1 -1 -1 -2 -2 -2 -2 -2 -2 -2 -1 -1 -1 -1 -0 -0 -0 -0 -1 -1 -1 -1 -0 -0 0 0 0 0 0 -0 -1 -1 -1 -1 -1 -1 -1 -1 -1 -1 -1 -1
1 1 1 1 2 2 2 2 2 2 2 2 1 1 1 1 1 1 1 1 1 1 1 1 1 1 1 1 0 0 0 0 0 0 0 0 0 0 -0 -0 -1 -1 -1 -1 -1 -1 -1 -2 -2 -2 -2 -2 -2 -2 -2 -2 -1 -1 -1 -1 -1 -1 -1 -1 -1 -2 -2 -2 -2 -2 -2 -2 -2 -2 -1 -1 -1 -0 -0 -0 -1 -1 -1 -1 -1 -1 -0 0 0 0 -0 -0 -0 -0 -1 -1 -1 -1 -1 -1 -1 -1 -1
1 2 2 2 2 3 3 3 2 2 2 2 2 2 2 1 1 1 1 1 1 1 2 2 1 1 1 0 0 0 0 0 0 0 0 0 0 0 -0 -0 -0 -1 -1 -1 -1 -1 -1 -2 -2 -2 -2 -2 -2 -2 -2 -2 -2 -2 -2 -1 -1 -1 -1 -1 -1 -2 -2 -2 -2 -2 -2 -2 -2 -2 -2 -1 -1 -1 -0 -0 -0 -0 -1 -1 -2 -1 -1 -0 0 0 -0 -0 0 0 0 -0 -0 -1 -1 -1 -1 -1 -1
2 2 2 3 3 3 3 3 2 2 2 2 2 2 2 2 1 1 1 1 1 1 2 2 2 1 1 1 0 0 0 0 0 0 0 0 0 0 -0 -0 -0 -0 -1 -1 -1 -1 -1 -2 -2 -2 -2 -2 -2 -2 -2 -2 -2 -2 -2 -2 -2 -1 -1 -1 -1 -1 -2 -2 -2 -2 -2 -2 -2 -2 -2 -2 -2 -1 -1 -0 -0 -0 -0 -1 -1 -2 -2 -1 -0 0 0 0 0 0 0 0 -0 -0 -0 -1 -1 -1 -1
2 3 3 3 3 3 3 2 2 2 2 2 2 1 1 1 1 1 1 1 1 2 2 2 2 2 1 1 1 1 1 1 1 0 0 0 0 0 -0 -0 -0 -0 -0 -1 -1 -2 -2 -2 -2 -2 -2 -2 -2 -2 -2 -2 -2 -2 -2 -2 -2 -1 -1 -1 -1 -1 -1 -2 -2 -2 -2 -2 -2 -3 -3 -2 -2 -2 -1 -1 -0 -0 0 -0 -1 -1 -2 -2 -1 -1 -0 -0 0 0 0 0 -0 -0 -0 -1 -1 -1 -1
2 2 2 2 2 2 2 2 2 2 2 2 1 1 1 1 1 1 1 1 2 2 2 2 2 2 2 1 1 1 1 1 1 0 0 0 0 0 0 -0 -0 -0 -0 -1 -1 -1 -2 -2 -2 -2 -1 -2 -2 -2 -2 -2 -2 -2 -2 -2 -2 -1 -1 -1 -1 -1 -1 -2 -2 -2 -2 -2 -2 -2 -2 -2 -2 -2 -2 -1 -1 -0 -0 0 0 -0 -1 -1 -1 -1 -1 -0 -0 -0 -0 -0 -0 -0 -0 -1 -1 -1 -1
2 1 1 1 1 2 2 2 2 2 2 2 2 1 1 1 1 2 1 1 2 2 2 2 2 2 2 2 1 1 1 1 1 1 1 0 0 0 0 -0 -0 -0 -0 -1 -1 -1 -1 -1 -1 -1 -1 -1 -1 -2 -2 -2 -2 -2 -2 -2 -2 -1 -1 -1 -1 -1 -2 -2 -2 -2 -2 -2 -2 -2 -2 -2 -2 -2 -2 -2 -1 -1 -1 -0 0 0 0 -0 -1 -1 -1 -0 -0 -0 -0 -0 -0 -0 -1 -1 -1 -1 -1
2 1 1 1 2 2 2 2 2 2 2 2 2 2 2 2 2 2 2 2 2 2 2 2 2 2 2 2 1 1 1 1 1 1 0 0 0 0 0 -0 -0 -0 -0 -1 -1 -1 -1 -1 -1 -1 -1 -1 -1 -2 -2 -2 -2 -2 -2 -2 -2 -2 -1 -1 -1 -1 -2 -2 -2 -2 -2 -2 -2 -2 -2 -3 -3 -3 -2 -2 -2 -2 -1 -1 -0 0 0 0 -0 -0 -0 -0 -0 -0 -0 -0 -0 -0 -1 -1 -1 -1 -1
2 2 2 2 2 2 2 2 2 2 2 2 2 2 2 2 2 2 2 2 1 1 2 2 2 2 2 2 2 1 1 1 1 1 0 0 0 0 -0 -0 -0 -0 -1 -1 -1 -1 -1 -1 -1 -1 -1 -1 -1 -1 -2 -2 -2 -2 -2 -2 -2 -2 -2 -2 -2 -2 -2 -2 -2 -2 -2 -2 -2 -2 -2 -2 -3 -3 -3 -2 -2 -2 -1 -1 -1 -1 -0 0 0 0 -0 -0 -0 -0 -0 -0 -0 -0 -0 -1 -1 -1 -1
2 2 2 3 3 3 2 2 2 2 2 2 3 3 3 2 2 2 2 1 1 1 2 2 1 2 2 2 2 2 2 2 1 1 0 0 0 -0 -0 -0 -0 -0 -1 -1 -1 -1 -1 -1 -0 -0 -1 -1 -1 -1 -1 -2 -2 -2 -2 -2 -2 -2 -2 -2 -2 -2 -2 -2 -2 -2 -3 -2 -2 -2 -2 -2 -2 -2 -2 -2 -2 -1 -1 -1 -1 -1 -1 -0 -0 0 0 0 -0 -0 -0 -0 -0 -0 -0 -0 -0 -0 -0
2 2 2 3 3 3 3 3 2 2 2 2 3 3 3 2 2 2 2 1 1 1 1 1 1 1 1 1 2 2 2 2 2 1 1 1 0 -0 -0 -0 -0 -0 -1 -1 -1 -1 -1 -0 -0 -0 -0 -1 -1 -1 -1 -1 -1 -1 -1 -1 -2 -2 -2 -2 -2 -2 -1 -2 -2 -2 -2 -3 -2 -2 -2 -2 -2 -2 -2 -2 -2 -1 -1 -1 -1 -1 -1 -1 -1 -0 0 0 0 -0 -0 -0 -0 -0 -0 0 0 0 0
2 2 2 3 3 3 3 2 2 2 2 2 2 2 2 2 2 2 1 1 1 1 1 1 1 1 1 1 1 2 2 2 2 1 1 1 1 0 -0 -0 -0 -1 -1 -1 -1 -1 -1 -0 -0 -0 -0 -0 -0 -1 -1 -1 -1 -1 -1 -1 -1 -1 -1 -1 -1 -1 -1 -1 -2 -2 -2 -2 -2 -2 -2 -2 -2 -2 -2 -2 -2 -2 -1 -1 -1 -1 -1 -2 -2 -1 -1 -0 0 -0 -0 -0 -0 -0 -0 0 0 0 0
2 2 2 3 2 2 2 1 1 2 2 2 2 2 2 2 2 1 1 1 1 1 1 1 1 1 1 1 1 1 2 2 2 2 1 1 1 1 0 0 -0 -0 -0 -0 -1 -1 -1 -1 -0 -0 -0 -0 -0 -0 -0 -1 -1 -1 -1 -1 -1 -1 -1 -1 -1 -1 -1 -1 -1 -1 -2 -2 -2 -2 -2 -2 -2 -2 -2 -2 -2 -2 -1 -1 -1 -1 -1 -2 -2 -2 -1 -1 -0 -0 -0 -0 -1 -1 -0 -0 -0 0 0
2 3 3 3 2 1 1 1 1 1 1 1 1 2 2 2 2 2 2 1 1 1 1 1 1 1 1 1 1 1 2 2 2 2 1 1 1 1 1 1 0 0 0 -0 -0 -1 -1 -1 -1 -1 -0 -0 -0 -0 -0 -1 -1 -1 -0 -0 -0 -1 -1 -1 -1 -1 -1 -1 -1 -1 -1 -1 -2 -2 -2 -2 -2 -1 -1 -1 -1 -1 -1 -1 -1 -1 -1 -2 -2 -2 -2 -1 -1 -1 -1 -1 -1 -1 -1 -0 -0 -0 -0
3 3 3 2 1 1 0 0 0 1 1 1 1 2 2 2 2 2 2 2 1 1 0 1 2 2 1 1 1 1 2 2 1 1 1 1 1 2 2 2 1 1 1 0 0 -0 -1 -1 -1 -1 -0 -0 -0 -0 -0 -0 -0 -0 -0 -1 -1 -1 -1 -1 -1 -1 -1 -0 -1 -1 -1 -1 -1 -2 -2 -2 -2 -1 -1 -1 -1 -1 -1 -1 -1 -1 -1 -1 -1 -2 -2 -2 -1 -1 -1 -1 -1 -1 -1 -1 -0 -0 -0
3 3 3 2 1 1 0 0 0 1 1 1 2 2 2 1 2 2 2 2 2 2 1 1 1 1 1 1 1 1 1 1 1 1 1 1 1 1 2 2 2 2 2 1 1 0 -0 -0 -0 -0 -0 -0 -0 -0 -0 -0 -0 -0 -0 -1 -1 -1 -1 -1 -1 -1 -1 -1 -1 -1 -1 -1 -1 -1 -2 -2 -2 -1 -1 -1 -1 -1 -1 -1 -1 -1 -1 -1 -1 -1 -1 -1 -1 -1 -1 -1 -1 -1 -1 -1 -0 -0 -0
3 3 3 2 1 1 0 0 1 1 1 1 2 1 1 1 1 2 2 2 2 2 1 0 0 1 1 1 1 1 1 1 1 1 1 1 1 1 1 2 2 2 2 1 1 1 0 0 -0 -0 -0 -0 -0 -0 -0 -0 -0 -0 -0 -0 -1 -1 -1 -1 -1 -1 -1 -1 -1 -1 -1 -1 -1 -1 -1 -2 -2 -1 -1 -1 -1 -1 -0 -1 -1 -1 -1 -1 -1 -1 -1 -1 -1 -1 -1 -1 -1 -1 -1 -1 -1 -0 -0
3 3 3 3 2 1 1 1 1 1 1 1 1 1 1 1 2 3 3 2 2 2 1 0 -0 -0 -0 0 1 1 1 1 1 1 1 1 1 1 1 1 2 2 2 2 1 1 1 0 0 0 0 0 -0 -0 -0 -0 -0 -0 -0 -0 -1 -1 -1 -1 -1 -1 -1 -1 -1 -1 -1 -1 -1 -1 -2 -2 -2 -2 -1 -1 -1 -1 -0 -0 -0 -1 -1 -1 -1 -1 -1 -1 -1 -1 -1 -1 -1 -1 -1 -1 -1 -1 -0
3 3 4 3 3 2 1 0 0 1 1 1 1 1 1 1 2 3 2 2 2 1 0 0 -0 -0 -0 -0 0 1 1 1 1 1 1 0 0 1 1 1 1 1 1 2 1 1 1 1 0 0 0 0 0 -0 -0 -0 -0 -0 -0 -0 -1 -1 -1 -1 -1 -1 -1 -1 -1 -1 -1 -1 -1 -1 -2 -2 -2 -2 -2 -1 -1 -1 -1 -0 -0 -0 -0 -0 -1 -1 -1 -1 -1 -1 -1 -1 -1 -1 -1 -1 -1 -1 -1
3 4 4 4 4 2 1 0 1 1 1 1 1 2 1 2 2 2 1 1 1 0 -1 -0 0 0 -0 -0 -0 -0 1 0 1 1 2 1 -0 -0 0 1 1 0 0 1 1 1 0 0 0 0 1 1 0 0 -0 -0 -0 -0 -0 -1 -1 -1 -1 -1 -1 -1 -1 -1 -1 -1 -1 -1 -1 -1 -1 -1 -2 -2 -2 -2 -1 -1 -1 -0 -0 0 -0 -0 -0 -1 -1 -1 -1 -1 -1 -1 -1 -1 -1 -1 -1 -1 -1
3 4 5 4 4 2 1 0 0 1 1 1 1 2 2 2 1 1 0 0 0 -0 -0 -1 -0 1 1 -0 -1 -1 0 0 0 1 1 0 1 1 -1 -0 0 1 0 0 1 1 0 -0 -0 0 1 1 1 0 0 0 0 -0 -0 -1 -1 -1 -1 -1 -0 -0 -0 -1 -1 -1 -1 -1 -2 -2 -1 -1 -1 -1 -2 -2 -1 -1 -1 -1 -0 0 0 0 -0 -1 -1 -1 -1 -1 -1 -1 -1 -1 -1 -1 -1 -1 -1
3 4 4 4 3 2 1 0 -0 0 0 1 1 1 1 1 0 -0 -0 -0 -1 -1 -0 -0 -1 -0 2 1 -1 -2 0 -0 0 1 0 -2 -0 2 2 1 0 0 -0 0 0 0 0 -0 -0 -0 1 1 1 1 0 0 0 -0 -0 -1 -1 -1 -1 -0 -0 -0 -0 -0 -0 -1 -1 -1 -1 -1 -1 -1 -1 -1 -1 -1 -1 -1 -1 -1 -1 -0 0 0 -0 -1 -1 -1 -1 -1 -1 -1 -1 -1 -1 -1 -1 -1 -1
2 3 4 4 3 2 1 0 -0 -1 0 1 1 1 1 1 -0 -1 -1 -0 -1 -2 -1 0 -1 -1 -0 1 -0 -2 0 0 -0 -0 3 -0 -1 1 4 4 2 -0 -1 -0 -1 -1 1 -0 -1 -0 1 1 1 1 0 0 0 -0 -0 -1 -1 -1 -0 -0 0 0 0 0 0 -0 -1 -1 -1 -1 -1 -1 -1 -1 -1 -1 -1 -1 -2 -1 -1 -0 0 0 -0 -1 -1 -1 -1 -1 -1 -1 -1 -1 -1 -1 -1 -1 -1
2 3 3 3 3 2 1 1 -0 -1 0 1 1 0 0 1 0 -1 -1 -1 -1 -2 -2 -0 0 -0 -2 -1 -1 -1 -1 1 1 1 3 1 -0 0 3 4 2 -1 -2 1 -0 -2 -0 -1 -1 -1 1 2 1 1 1 1 0 -0 -0 -0 -1 -1 -0 0 0 0 1 1 0 -0 -0 -1 -1 -1 -1 -1 -1 -1 -1 -1 -1 -1 -2 -2 -1 -1 -0 -0 -0 -0 -1 -1 -1 -1 -1 -1 -1 -1 -1 -1 -1 -1 -1
3 3 4 3 2 2 1 1 0 0 0 1 1 1 1 1 1 0 -0 -0 -1 -1 -1 -1 -0 1 -1 -3 -2 -0 -1 1 2 2 1 -0 2 4 2 0 -0 -1 -1 4 4 1 -4 -1 -0 -1 -1 2 2 1 0 1 0 -0 -0 -0 -0 -0 0 0 0 1 1 1 1 0 -0 -1 -1 -1 -1 -1 -1 -1 -0 -1 -1 -1 -1 -1 -1 -1 -1 -0 -0 -1 -1 -1 -1 -1 -1 -1 -1 -1 -1 -1 -1 -2 -2
3 4 5 4 2 2 1 2 1 1 -1 0 1 1 1 2 2 2 1 1 0 0 1 -1 -2 -0 1 -1 -1 0 2 0 2 3 1 -2 2 7 5 1 -1 0 2 4 4 3 3 -4 -4 -1 1 2 2 1 -0 0 0 -0 -1 -0 -0 -0 0 0 0 1 1 1 1 0 -0 -1 -1 -1 -1 -1 -1 -1 -0 -1 -1 -1 -1 -1 -1 -1 -1 -1 -1 -1 -1 -1 -1 -1 -0 -1 -1 -1 -1 -1 -2 -2 -2
-2 -2 -1 1 2 3 3 3 2 1 -1 -0 1 1 1 3 3 3 3 2 2 2 1 -0 -1 -1 1 2 1 0 1 1 2 2 3 0 3 6 7 3 1 1 4 2 3 5 6 -5 -3 1 -0 2 3 2 -1 -0 -0 -0 -1 -0 -0 0 0 0 0 0 0 1 1 0 -0 -1 -1 -1 -1 -1 -1 -0 -0 -1 -1 -1 -1 -1 -1 -1 -1 -1 -2 -1 -1 -1 -1 -0 -0 -0 -1 -1 -1 -1 -2 -2 -1
-8 -10 -9 -4 1 4 5 4 3 2 1 1 1 2 2 3 3 3 2 2 2 2 2 2 1 -0 -0 3 3 2 -0 1 1 1 4 4 4 4 4 2 1 2 5 3 4 4 -4 -3 3 5 -4 -1 2 3 0 -0 -0 0 0 0 -0 -0 -0 0 -0 -0 -0 -0 -0 -0 -1 -0 -0 -1 -1 -1 -0 -0 -0 -0 -1 -1 -1 -1 -1 -1 -1 -2 -2 -2 -2 -1 -1 -1 -0 -0 -0 -1 -1 -1 -2 -2 -1
-8 -10 -9 -4 2 6 6 5 5 4 3 3 3 3 2 2 2 2 2 2 2 3 4 4 2 1 -0 2 3 3 -0 0 1 2 3 5 5 4 2 1 1 4 6 4 2 -1 -8 0 5 5 -2 -5 -2 2 3 1 -0 0 1 0 -1 -1 -1 -1 -0 -1 -1 -1 -1 -0 -0 0 -0 -0 -1 -0 -0 -0 -0 -0 -0 -0 -1 -1 -1 -1 -1 -2 -2 -2 -2 -1 -1 -1 -0 -0 -0 -1 -1 -2 -2 -2 -1
-5 -5 -4 0 5 7 7 7 6 6 5 4 4 3 2 2 2 3 3 3 3 3 3 2 1 1 1 1 2 2 1 0 1 2 3 4 3 3 4 3 3 4 4 3 -0 -2 -2 4 5 4 2 -2 -4 -2 3 2 1 1 1 -0 -1 -1 -1 -1 -1 -1 -1 -1 -1 -0 0 0 0 -0 -0 -0 0 0 0 -0 -0 -0 -0 -1 -1 -1 -1 -1 -1 -2 -2 -1 -1 -1 -0 -0 -1 -1 -1 -1 -2 -2 -1
-1 -1 -0 3 6 8 9 9 8 7 5 4 4 3 2 1 2 3 4 3 3 3 3 1 1 1 1 1 1 2 2 2 0 0 4 4 2 1 5 5 4 3 4 4 1 -0 1 3 4 4 3 1 -1 -2 -2 -0 2 3 2 1 -0 -1 -1 -1 -1 -1 -1 -0 -0 -0 -0 -0 -0 -0 -0 0 0 0 0 0 -0 -0 -0 -0 -1 -1 -1 -1 -1 -1 -1 -1 -1 -1 -0 -0 -1 -1 -1 -1 -1 -1 -1
1 1 2 4 6 8 10 11 9 7 4 3 2 1 0 0 1 2 3 3 2 2 2 2 1 0 -0 0 1 1 3 4 0 -3 -0 5 3 1 4 5 4 2 4 2 1 1 2 2 2 3 3 2 1 -0 -2 -2 1 4 5 3 1 -0 -1 -1 -1 -1 -0 0 0 -0 -1 -0 -0 -0 -0 0 1 1 1 0 0 -0 -0 -1 -1 -1 -1 -1 -1 -1 -1 -1 -1 -0 -0 -0 -1 -1 -1 -1 -1 -1 -1
Height
3184 3185 3185 3186 3186 3186 3186 3187 3187 3187 3187 3187 3188 3188 3188 3188 3188 3188 3188 3188 3188 3189 3189 3189 3189 3189 3189 3189 3189 3189 3189 3188 3188 3188 3188 3188 3187 3187 3187 3187 3187 3186 3186 3186 3186 3186 3186 3185 3185 3185 3185 3185 3185 3185 3184 3184 3184 3184 3183 3183 3183 3182 3182 3181 3181 3181 3180 3180 3180 3179 3179 3179 3178 3178 3178 3177 3177 3177 3176 3176 3176 3175 3175 3175 3174 3174 3174 3173 3173 3172 3172 3171 3171 3171 3170 3170 3170 3169 3169 3168 3168 3167 3167
3185 3185 3185 3186 3186 3186 3186 3187 3187 3187 3187 3188 3188 3188 3188 3188 3188 3189 3189 3189 3189 3189 3189 3189 3189 3189 3189 3189 3189 3189 3189 3189 3189 3188 3188 3188 3188 3187 3187 3187 3187 3187 3187 3186 3186 3186 3186 3186 3186 3186 3186 3186 3185 3185 3185 3184 3184 3184 3183 3183 3183 3182 3182 3181 3181 3181 3180 3180 3180 3179 3179 3179 3178 3178 3178 3177 3177 3177 3176 3176 3176 3175 3175 3175 3174 3174 3174 3173 3173 3172 3172 3171 3171 3171 3170 3170 3169 3169 3168 3168 3167 3167 3166
3185 3185 3186 3186 3186 3186 3186 3187 3187 3187 3188 3188 3188 3188 3189 3189 3189 3189 3189 3189 3189 3189 3189 3189 3189 3189 3189 3189 3189 3189 3189 3189 3189 3189 3188 3188 3188 3188 3188 3187 3187 3187 3187 3187 3186 3186 3186 3186 3186 3186 3186 3186 3186 3185 3185 3184 3184 3184 3184 3183 3183 3182 3182 3181 3181 3181 3180 3180 3180 3179 3179 3178 3178 3178 3178 3177 3177 3177 3176 3176 3176 3176 3175 3175 3174 3174 3174 3173 3173 3172 3172 3171 3171 3171 3170 3170 3169 3169 3168 3168 3167 3166 3166
3185 3185 3186 3186 3186 3186 3187 3187 3187 3187 3188 3188 3188 3189 3189 3189 3189 3189 3189 3189 3190 3190 3190 3190 3190 3190 3190 3190 3190 3190 3189 3189 3189 3189 3189 3188 3188 3188 3188 3188 3188 3187 3187 3187 3187 3187 3186 3186 3186 3186 3186 3186 3186 3185 3185 3185 3184 3184 3184 3183 3183 3182 3182 3181 3181 3181 3180 3180 3180 3179 3179 3178 3178 3178 3177 3177 3177 3177 3176 3176 3176 3176 3175 3175 3174 3174 3173 3173 3173 3172 3172 3171 3171 3170 3170 3169 3169 3168 3168 3167 3167 3166 3166
3185 3185 3186 3186 3186 3186 3187 3187 3187 3188 3188 3188 3189 3189 3189 3189 3189 3190 3190 3190 3190 3190 3190 3190 3190 3190 3190 3190 3190 3190 3190 3189 3189 3189 3189 3189 3188 3188 3188 3188 3188 3188 3187 3187 3187 3187 3187 3187 3187 3186 3186 3186 3186 3186 3185 3185 3184 3184 3184 3183 3183 3182 3182 3181 3181 3181 3180 3180 3180 3179 3179 3178 3178 3178 3177 3177 3177 3176 3176 3176 3176 3175 3175 3175 3174 3174 3173 3173 3172 3172 3171 3171 3171 3170 3170 3169 3169 3168 3168 3167 3166 3166 3166
3185 3185 3186 3186 3186 3186 3187 3187 3187 3188 3188 3189 3189 3189 3189 3190 3190 3190 3190 3190 3190 3190 3190 3190 3190 3190 3190 3190 3190 3190 3190 3190 3189 3189 3189 3189 3189 3188 3188 3188 3188 3188 3188 3187 3187 3187 3187 3187 3187 3187 3186 3186 3186 3186 3185 3185 3185 3184 3184 3183 3183 3182 3182 3181 3181 3181 3180 3180 3180 3179 3179 3178 3178 3178 3177 3177 3177 3176 3176 3176 3176 3175 3175 3175 3174 3174 3173 3173 3172 3172 3171 3171 3170 3170 3169 3169 3168 3168 3167 3167 3166 3166 3165
3185 3185 3186 3186 3186 3186 3187 3187 3188 3188 3188 3189 3189 3189 3190 3190 3190 3190 3190 3190 3191 3191 3191 3191 3191 3191 3190 3190 3190 3190 3190 3190 3190 3189 3189 3189 3189 3189 3189 3188 3188 3188 3188 3188 3187 3187 3187 3187 3187 3187 3187 3186 3186 3186 3186 3185 3185 3184 3184 3183 3183 3182 3182 3181 3181 3181 3180 3180 3180 3179 3179 3178 3178 3178 3177 3177 3176 3176 3176 3176 3175 3175 3175 3174 3174 3173 3173 3172 3172 3171 3171 3171 3170 3170 3169 3168 3168 3167 3167 3166 3166 3165 3165
3185 3185 3186 3186 3186 3186 3187 3187 3188 3188 3189 3189 3189 3190 3190 3190 3190 3190 3191 3191 3191 3191 3191 3191 3191 3191 3191 3191 3191 3190 3190 3190 3190 3190 3190 3189 3189 3189 3189 3189 3188 3188 3188 3188 3188 3188 3187 3187 3187 3187 3187 3187 3186 3186 3186 3185 3185 3184 3184 3183 3183 3182 3182 3182 3181 3181 3181 3180 3180 3179 3179 3178 3178 3178 3177 3177 3176 3176 3176 3176 3175 3175 3174 3174 3174 3173 3173 3172 3172 3171 3171 3170 3170 3169 3169 3168 3168 3167 3167 3166 3165 3165 3164
3185 3185 3186 3186 3186 3187 3187 3187 3188 3188 3189 3189 3190 3190 3190 3190 3191 3191 3191 3191 3191 3191 3191 3191 3191 3191 3191 3191 3191 3191 3191 3190 3190 3190 3190 3190 3190 3189 3189 3189 3189 3189 3188 3188 3188 3188 3188 3188 3187 3187 3187 3187 3186 3186 3186 3185 3185 3185 3184 3184 3183 3182 3182 3182 3181 3181 3181 3180 3180 3179 3179 3178 3178 3177 3177 3177 3176 3176 3176 3175 3175 3175 3174 3174 3173 3173 3172 3172 3171 3171 3171 3170 3170 3169 3168 3168 3167 3167 3166 3166 3165 3165 3164
3185 3185 3186 3186 3186 3187 3187 3188 3188 3188 3189 3189 3190 3190 3191 3191 3191 3191 3191 3191 3191 3191 3191 3191 3191 3191 3191 3191 3191 3191 3191 3191 3191 3190 3190 3190 3190 3190 3189 3189 3189 3189 3189 3188 3188 3188 3188 3188 3188 3187 3187 3187 3186 3186 3186 3185 3185 3185 3184 3184 3183 3182 3182 3182 3181 3181 3181 3180 3180 3179 3179 3178 3178 3177 3177 3176 3176 3176 3175 3175 3175 3174 3174 3174 3173 3173 3172 3172 3171 3171 3170 3170 3169 3169 3168 3168 3167 3166 3166 3165 3165 3164 3164
3185 3185 3186 3186 3186 3187 3187 3188 3188 3189 3189 3190 3190 3190 3191 3191 3191 3191 3191 3191 3192 3192 3192 3192 3192 3192 3192 3191 3191 3191 3191 3191 3191 3191 3191 3190 3190 3190 3190 3190 3189 3189 3189 3189 3188 3188 3188 3188 3188 3187 3187 3187 3186 3186 3186 3185 3185 3185 3184 3184 3183 3182 3182 3182 3181 3181 3181 3180 3180 3179 3179 3178 3178 3177 3177 3176 3176 3176 3175 3175 3174 3174 3174 3173 3173 3172 3172 3171 3171 3171 3170 3170 3169 3169 3168 3167 3167 3166 3166 3165 3164 3164 3163
3185 3185 3186 3186 3186 3187 3188 3188 3188 3189 3189 3190 3190 3191 3191 3191 3191 3191 3191 3192 3192 3192 3192 3192 3192 3192 3192 3192 3192 3191 3191 3191 3191 3191 3191 3191 3190 3190 3190 3190 3190 3189 3189 3189 3189 3188 3188 3188 3188 3187 3187 3187 3186 3186 3186 3185 3185 3184 3184 3183 3183 3182 3182 3182 3181 3181 3181 3180 3180 3179 3179 3178 3178 3177 3177 3176 3176 3176 3175 3175 3174 3174 3173 3173 3173 3172 3172 3171 3171 3171 3170 3169 3169 3168 3168 3167 3166 3166 3165 3165 3164 3163 3163
3185 3185 3186 3186 3187 3187 3188 3188 3189 3189 3190 3190 3191 3191 3191 3191 3191 3191 3192 3192 3192 3192 3192 3192 3192 3192 3192 3192 3192 3192 3191 3191 3191 3191 3191 3191 3191 3190 3190 3190 3190 3189 3189 3189 3189 3188 3188 3188 3188 3187 3187 3187 3186 3186 3186 3185 3185 3184 3184 3183 3183 3183 3182 3181 3181 3181 3181 3180 3180 3179 3179 3178 3178 3177 3177 3176 3176 3176 3175 3175 3174 3174 3173 3173 3172 3172 3171 3171 3171 3170 3170 3169 3169 3168 3167 3167 3166 3166 3165 3164 3164 3163 3162
3185 3186 3186 3186 3187 3187 3188 3188 3189 3189 3190 3190 3191 3191 3191 3191 3191 3192 3192 3192 3192 3192 3192 3192 3192 3192 3192 3192 3192 3192 3191 3191 3191 3191 3191 3191 3191 3190 3190 3190 3190 3189 3189 3189 3189 3188 3188 3188 3188 3187 3187 3187 3186 3186 3186 3185 3185 3184 3184 3183 3183 3182 3182 3181 3181 3181 3181 3180 3180 3179 3179 3178 3178 3177 3177 3176 3176 3176 3175 3175 3174 3174 3173 3173 3172 3172 3171 3171 3170 3170 3169 3169 3168 3168 3167 3166 3166 3165 3165 3164 3163 3163 3162
3185 3186 3186 3186 3187 3188 3188 3189 3189 3189 3190 3190 3191 3191 3191 3191 3192 3192 3192 3192 3192 3192 3192 3192 3192 3192 3192 3192 3192 3192 3192 3191 3191 3191 3191 3191 3191 3190 3190 3190 3190 3189 3189 3189 3189 3189 3188 3188 3188 3187 3187 3187 3186 3186 3185 3185 3185 3184 3184 3183 3183 3182 3182 3181 3181 3181 3180 3180 3180 3179 3179 3178 3178 3177 3177 3176 3176 3175 3175 3174 3174 3173 3173 3172 3172 3171 3171 3171 3170 3169 3169 3168 3168 3167 3166 3166 3166 3165 3164 3164 3163 3162 3162
3185 3186 3186 3187 3187 3188 3188 3189 3189 3189 3190 3190 3191 3191 3191 3191 3192 3192 3192 3192 3192 3192 3192 3192 3192 3192 3192 3192 3192 3192 3192 3191 3191 3191 3191 3191 3191 3190 3190 3190 3190 3190 3189 3189 3189 3189 3188 3188 3188 3187 3187 3187 3186 3186 3186 3185 3185 3184 3183 3183 3182 3182 3182 3181 3181 3181 3180 3180 3179 3179 3179 3178 3177 3177 3176 3176 3176 3175 3175 3174 3174 3173 3173 3172 3172 3171 3171 3170 3170 3169 3168 3168 3167 3167 3166 3166 3165 3164 3164 3163 3163 3162 3161
3185 3186 3186 3187 3187 3188 3188 3189 3189 3189 3190 3190 3191 3191 3191 3192 3192 3192 3192 3192 3192 3192 3192 3192 3192 3192 3192 3192 3192 3192 3192 3192 3191 3191 3191 3191 3191 3190 3190 3190 3190 3190 3190 3189 3189 3189 3189 3188 3188 3188 3187 3187 3186 3186 3186 3185 3185 3184 3184 3183 3183 3182 3182 3181 3181 3181 3180 3180 3179 3179 3178 3178 3177 3177 3176 3176 3175 3175 3174 3174 3173 3173 3172 3172 3171 3171 3170 3170 3169 3169 3168 3167 3167 3166 3166 3165 3165 3164 3163 3163 3162 3162 3161
3185 3185 3186 3187 3187 3188 3188 3188 3189 3189 3190 3190 3191 3191 3191 3192 3192 3192 3192 3192 3192 3192 3192 3192 3192 3192 3192 3192 3192 3192 3192 3192 3192 3191 3191 3191 3191 3190 3190 3190 3190 3190 3190 3189 3189 3189 3189 3188 3188 3188 3187 3187 3187 3186 3186 3185 3185 3184 3184 3183 3183 3182 3182 3181 3181 3181 3180 3180 3179 3178 3178 3177 3177 3176 3176 3176 3175 3175 3174 3174 3173 3173 3172 3171 3171 3171 3170 3169 3169 3168 3168 3167 3166 3166 3165 3165 3164 3164 3163 3162 3162 3161 3161
3184 3185 3186 3186 3187 3187 3188 3188 3189 3189 3190 3190 3191 3191 3191 3192 3192 3192 3192 3192 3192 3192 3192 3192 3192 3192 3192 3192 3192 3192 3192 3192 3192 3191 3191 3191 3191 3191 3190 3190 3190 3190 3190 3189 3189 3189 3189 3188 3188 3188 3187 3187 3187 3186 3186 3186 3185 3184 3184 3183 3183 3182 3182 3181 3181 3180 3180 3179 3179 3178 3178 3177 3177 3176 3176 3175 3175 3174 3174 3173 3173 3172 3172 3171 3171 3170 3169 3169 3168 3168 3167 3167 3166 3166 3165 3164 3164 3163 3163 3162 3161 3161 3160
3184 3185 3186 3186 3187 3187 3187 3188 3188 3189 3190 3190 3191 3191 3191 3191 3192 3192 3192 3192 3192 3192 3192 3192 3192 3192 3192 3192 3192 3192 3192 3192 3192 3191 3191 3191 3191 3191 3191 3190 3190 3190 3190 3189 3189 3189 3189 3188 3188 3188 3187 3187 3187 3186 3186 3186 3185 3185 3184 3184 3183 3182 3182 3181 3181 3180 3180 3179 3179 3178 3177 3177 3176 3176 3176 3175 3174 3174 3173 3173 3172 3172 3171 3171 3170 3170 3169 3168 3168 3167 3167 3166 3166 3165 3165 3164 3163 3163 3162 3161 3161 3161 3160
3184 3185 3185 3186 3186 3186 3187 3187 3188 3189 3189 3190 3190 3191 3191 3191 3192 3192 3192 3192 3192 3192 3192 3192 3192 3192 3192 3192 3192 3192 3192 3192 3192 3191 3191 3191 3191 3191 3191 3190 3190 3190 3190 3189 3189 3189 3188 3188 3188 3187 3187 3187 3186 3186 3186 3185 3185 3184 3184 3184 3183 3182 3182 3181 3181 3180 3180 3179 3178 3178 3177 3177 3176 3176 3175 3174 3174 3173 3173 3172 3172 3171 3171 3170 3170 3169 3168 3168 3167 3167 3166 3166 3165 3165 3164 3164 3163 3162 3162 3161 3161 3160 3159
3184 3185 3185 3185 3186 3186 3186 3187 3188 3188 3189 3189 3190 3191 3191 3191 3191 3192 3192 3192 3192 3192 3192 3192 3192 3192 3192 3192 3192 3192 3192 3192 3192 3191 3191 3191 3191 3191 3190 3190 3190 3190 3189 3189 3189 3189 3188 3188 3188 3187 3187 3186 3186 3186 3186 3185 3185 3184 3184 3183 3183 3182 3182 3181 3181 3180 3179 3179 3178 3178 3177 3176 3176 3176 3175 3174 3173 3173 3172 3172 3171 3171 3170 3170 3169 3169 3168 3167 3167 3166 3166 3165 3165 3164 3164 3163 3162 3162 3161 3161 3160 3160 3159
3183 3184 3185 3185 3186 3186 3186 3187 3187 3188 3189 3189 3190 3190 3191 3191 3191 3191 3192 3192 3192 3192 3192 3192 3192 3192 3192 3192 3192 3192 3192 3192 3191 3191 3191 3191 3191 3191 3190 3190 3190 3190 3189 3189 3189 3188 3188 3188 3187 3187 3186 3186 3186 3186 3185 3185 3184 3184 3183 3183 3182 3182 3181 3181 3180 3180 3179 3179 3178 3177 3177 3176 3176 3175 3175 3174 3173 3173 3172 3171 3171 3171 3170 3169 3169 3168 3168 3167 3166 3166 3165 3165 3164 3164 3163 3162 3162 3161 3161 3160 3160 3159 3159
3183 3184 3184 3185 3185 3186 3186 3187 3187 3188 3188 3189 3189 3190 3190 3191 3191 3191 3191 3192 3192 3192 3192 3192 3192 3192 3192 3192 3192 3192 3192 3192 3191 3191 3191 3191 3191 3191 3190 3190 3190 3189 3189 3189 3188 3188 3188 3187 3187 3187 3186 3186 3186 3185 3185 3184 3183 3183 3182 3182 3181 3181 3181 3180 3180 3179 3179 3178 3178 3177 3176 3176 3176 3175 3174 3174 3173 3172 3172 3171 3171 3170 3170 3169 3168 3168 3167 3167 3166 3166 3165 3164 3164 3163 3162 3162 3161 3161 3160 3160 3159 3159 3158
3182 3183 3184 3184 3185 3186 3186 3187 3187 3187 3188 3188 3189 3189 3190 3190 3191 3191 3191 3191 3191 3192 3192 3192 3192 3192 3192 3192 3192 3192 3192 3191 3191 3191 3191 3191 3191 3190 3190 3190 3190 3189 3189 3189 3188 3188 3187 3187 3187 3186 3186 3186 3185 3185 3184 3184 3183 3182 3182 3181 3181 3181 3180 3180 3179 3179 3178 3178 3177 3177 3176 3176 3175 3175 3174 3173 3173 3172 3171 3171 3170 3170 3169 3169 3168 3167 3167 3166 3166 3165 3164 3164 3163 3162 3162 3161 3161 3160 3160 3159 3159 3158 3158
3182 3182 3183 3184 3185 3185 3186 3186 3187 3187 3188 3188 3188 3189 3190 3190 3190 3191 3191 3191 3191 3191 3192 3192 3192 3192 3192 3192 3192 3192 3192 3191 3191 3191 3191 3191 3191 3190 3190 3190 3190 3189 3189 3188 3188 3188 3187 3187 3186 3186 3186 3185 3185 3184 3184 3183 3183 3182 3182 3181 3181 3180 3180 3179 3179 3178 3178 3177 3177 3176 3176 3176 3175 3174 3174 3173 3173 3172 3171 3171 3170 3169 3169 3168 3167 3167 3166 3166 3165 3164 3164 3163 3163 3162 3161 3161 3160 3160 3159 3159 3158 3157 3157
3181 3182 3183 3183 3184 3185 3186 3186 3186 3187 3187 3188 3188 3189 3189 3190 3190 3190 3190 3191 3191 3191 3191 3191 3192 3192 3192 3192 3192 3192 3191 3191 3191 3191 3191 3191 3191 3190 3190 3190 3189 3189 3189 3188 3188 3187 3187 3187 3186 3186 3186 3185 3185 3184 3184 3183 3182 3182 3181 3181 3181 3180 3179 3179 3178 3178 3178 3177 3177 3176 3176 3175 3175 3174 3174 3173 3172 3172 3171 3170 3170 3169 3168 3168 3167 3166 3166 3165 3164 3164 3163 3162 3162 3161 3161 3160 3160 3159 3159 3158 3157 3157 3156
3181 3181 3182 3183 3184 3184 3185 3186 3186 3186 3187 3187 3188 3188 3189 3189 3189 3190 3190 3190 3190 3191 3191 3191 3191 3191 3191 3191 3191 3191 3191 3191 3191 3191 3191 3191 3190 3190 3190 3190 3189 3189 3189 3188 3188 3187 3187 3186 3186 3186 3186 3185 3185 3184 3184 3183 3182 3182 3181 3181 3180 3180 3179 3179 3178 3178 3177 3177 3176 3176 3176 3175 3175 3174 3173 3173 3172 3171 3171 3170 3169 3169 3168 3167 3167 3166 3166 3165 3164 3163 3163 3162 3161 3161 3160 3160 3159 3159 3158 3157 3157 3156 3156
3181 3181 3182 3183 3183 3184 3185 3185 3186 3186 3186 3187 3187 3188 3188 3188 3189 3189 3189 3190 3190 3190 3190 3191 3191 3191 3191 3191 3191 3191 3191 3191 3191 3191 3190 3190 3190 3190 3190 3189 3189 3189 3188 3188 3188 3187 3187 3186 3186 3186 3185 3185 3184 3184 3183 3183 3182 3181 3181 3181 3180 3180 3179 3179 3178 3178 3177 3177 3176 3176 3176 3175 3174 3174 3173 3173 3172 3171 3171 3170 3169 3168 3168 3167 3166 3166 3165 3165 3164 3163 3162 3161 3161 3160 3160 3159 3159 3158 3157 3157 3156 3156 3156
3180 3181 3181 3182 3183 3184 3184 3185 3185 3186 3186 3186 3187 3187 3188 3188 3188 3188 3189 3189 3189 3190 3190 3190 3190 3191 3191 3191 3191 3191 3191 3190 3190 3190 3190 3190 3190 3189 3189 3189 3189 3189 3188 3188 3187 3187 3187 3186 3186 3186 3185 3185 3184 3184 3183 3183 3182 3181 3181 3180 3180 3179 3179 3178 3178 3177 3177 3176 3176 3176 3175 3175 3174 3174 3173 3172 3172 3171 3170 3170 3169 3168 3167 3167 3166 3166 3165 3164 3164 3163 3162 3161 3161 3160 3159 3159 3158 3157 3157 3156 3156 3156 3155
3180 3181 3181 3182 3183 3183 3184 3184 3185 3185 3186 3186 3186 3187 3187 3187 3188 3188 3188 3188 3189 3189 3189 3190 3190 3190 3190 3190 3190 3190 3190 3190 3190 3190 3190 3189 3189 3189 3189 3189 3188 3188 3188 3187 3187 3187 3186 3186 3186 3185 3185 3184 3184 3183 3183 3182 3182 3181 3181 3180 3180 3179 3179 3178 3178 3177 3177 3176 3176 3175 3175 3174 3174 3173 3172 3172 3171 3171 3170 3169 3168 3168 3167 3166 3166 3165 3165 3164 3163 3162 3161 3161 3160 3159 3159 3158 3157 3157 3156 3156 3156 3155 3155
3179 3180 3181 3181 3182 3183 3184 3184 3185 3185 3185 3186 3186 3186 3186 3187 3187 3187 3188 3188 3188 3188 3189 3189 3189 3189 3189 3190 3190 3190 3190 3189 3189 3189 3189 3189 3189 3188 3188 3188 3188 3188 3187 3187 3187 3186 3186 3186 3185 3185 3185 3184 3184 3183 3183 3182 3182 3181 3181 3180 3179 3179 3178 3178 3177 3177 3176 3176 3176 3175 3174 3174 3173 3173 3172 3171 3171 3170 3169 3169 3168 3167 3166 3166 3165 3164 3164 3163 3163 3162 3161 3161 3160 3159 3158 3158 3157 3156 3156 3156 3155 3155 3154
3178 3179 3180 3181 3182 3182 3183 3183 3184 3184 3185 3185 3185 3186 3186 3186 3186 3187 3187 3187 3187 3188 3188 3188 3189 3189 3189 3189 3189 3189 3189 3189 3189 3189 3189 3188 3188 3188 3188 3188 3187 3187 3187 3187 3186 3186 3186 3185 3185 3185 3184 3184 3183 3183 3182 3182 3181 3181 3180 3180 3179 3179 3178 3178 3177 3177 3176 3176 3175 3175 3174 3173 3173 3172 3171 3171 3170 3170 3169 3168 3167 3167 3166 3165 3164 3164 3163 3162 3162 3161 3161 3160 3159 3159 3158 3157 3157 3156 3156 3155 3154 3154 3153
3178 3179 3179 3180 3181 3181 3182 3183 3183 3183 3184 3184 3184 3185 3185 3186 3186 3186 3186 3187 3187 3187 3187 3188 3188 3188 3188 3188 3188 3188 3188 3188 3188 3188 3188 3188 3188 3187 3187 3187 3187 3187 3186 3186 3186 3186 3185 3185 3185 3184 3184 3183 3183 3183 3182 3182 3181 3181 3180 3180 3179 3178 3178 3177 3177 3176 3176 3175 3175 3174 3173 3173 3172 3172 3171 3170 3170 3169 3168 3167 3167 3166 3165 3165 3164 3163 3162 3161 3161 3161 3160 3159 3159 3158 3158 3157 3156 3156 3155 3155 3154 3153 3153
3177 3178 3179 3179 3180 3181 3181 3182 3182 3183 3183 3183 3184 3184 3184 3185 3185 3186 3186 3186 3186 3186 3187 3187 3187 3187 3187 3188 3188 3188 3188 3188 3188 3188 3187 3187 3187 3187 3187 3187 3186 3186 3186 3186 3185 3185 3185 3184 3184 3184 3183 3183 3183 3182 3182 3181 3181 3180 3180 3179 3179 3178 3177 3177 3176 3176 3175 3175 3174 3173 3173 3172 3172 3171 3170 3170 3169 3168 3167 3167 3166 3166 3165 3164 3163 3162 3162 3161 3160 3160 3159 3159 3158 3158 3157 3156 3156 3155 3155 3154 3153 3153 3152
3176 3177 3178 3178 3179 3180 3180 3181 3181 3182 3182 3182 3183 3183 3184 3184 3184 3185 3185 3185 3186 3186 3186 3186 3186 3186 3187 3187 3187 3187 3187 3187 3187 3187 3187 3187 3187 3186 3186 3186 3186 3186 3186 3185 3185 3185 3184 3184 3184 3183 3183 3183 3182 3182 3181 3181 3180 3180 3179 3179 3178 3178 3177 3176 3176 3175 3175 3174 3173 3173 3172 3171 3171 3170 3170 3169 3168 3167 3166 3166 3165 3165 3164 3163 3163 3162 3161 3161 3160 3159 3159 3158 3157 3157 3156 3156 3156 3155 3154 3154 3153 3152 3152
3175 3176 3177 3178 3178 3179 3180 3180 3181 3181 3181 3182 3182 3182 3183 3183 3184 3184 3184 3185 3185 3185 3185 3186 3186 3186 3186 3186 3186 3186 3186 3186 3186 3186 3186 3186 3186 3186 3186 3186 3185 3185 3185 3185 3184 3184 3184 3183 3183 3183 3182 3182 3182 3181 3181 3181 3180 3179 3179 3178 3178 3177 3176 3176 3175 3175 3174 3173 3173 3172 3171 3171 3170 3169 3169 3168 3167 3166 3166 3165 3165 3164 3163 3163 3162 3162 3161 3160 3160 3159 3158 3157 3157 3156 3156 3156 3155 3154 3154 3153 3152 3152 3151
3175 3175 3176 3177 3177 3178 3179 3179 3180 3180 3180 3181 3181 3181 3182 3182 3183 3183 3183 3184 3184 3184 3184 3185 3185 3185 3185 3185 3186 3186 3186 3186 3186 3186 3186 3186 3186 3185 3185 3185 3185 3185 3184 3184 3184 3183 3183 3183 3183 3182 3182 3182 3181 3181 3181 3180 3180 3179 3178 3178 3177 3176 3176 3175 3175 3174 3173 3173 3172 3171 3171 3170 3169 3168 3168 3167 3166 3166 3165 3164 3164 3163 3163 3162 3161 3161 3161 3160 3159 3158 3158 3157 3156 3156 3155 3155 3154 3154 3153 3152 3152 3151 3151
3174 3175 3175 3176 3176 3177 3178 3178 3178 3179 3179 3180 3180 3181 3181 3181 3182 3182 3182 3183 3183 3183 3184 3184 3184 3184 3184 3185 3185 3185 3185 3185 3185 3185 3185 3185 3185 3185 3184 3184 3184 3184 3184 3183 3183 3183 3183 3182 3182 3182 3181 3181 3181 3181 3180 3180 3179 3178 3178 3177 3177 3176 3176 3175 3174 3173 3173 3172 3171 3171 3170 3169 3168 3167 3167 3166 3166 3165 3164 3164 3163 3162 3162 3161 3161 3160 3160 3159 3159 3158 3157 3156 3156 3155 3155 3154 3154 3153 3153 3152 3151 3151 3150
3173 3173 3174 3175 3176 3176 3176 3177 3177 3178 3178 3179 3179 3180 3180 3181 3181 3181 3181 3182 3182 3182 3183 3183 3183 3183 3183 3184 3184 3184 3184 3184 3184 3184 3184 3184 3184 3184 3184 3183 3183 3183 3183 3183 3182 3182 3182 3182 3182 3181 3181 3181 3180 3180 3179 3179 3178 3178 3177 3177 3176 3176 3175 3174 3174 3173 3172 3171 3171 3170 3169 3168 3167 3167 3166 3165 3165 3164 3163 3163 3162 3162 3161 3161 3160 3160 3159 3158 3158 3157 3157 3156 3156 3155 3154 3154 3153 3153 3152 3151 3151 3151 3150
3172 3172 3173 3174 3174 3175 3175 3176 3176 3176 3177 3177 3178 3178 3179 3179 3180 3180 3181 3181 3181 3181 3181 3182 3182 3182 3182 3182 3183 3183 3183 3183 3183 3183 3183 3183 3183 3183 3183 3183 3182 3182 3182 3182 3182 3181 3181 3181 3181 3181 3181 3180 3180 3179 3179 3178 3178 3177 3177 3176 3176 3175 3174 3174 3173 3172 3171 3171 3170 3169 3168 3167 3167 3166 3165 3165 3164 3163 3163 3162 3162 3161 3161 3160 3160 3159 3158 3158 3157 3156 3156 3156 3155 3154 3154 3153 3153 3152 3151 3151 3151 3150 3149
3171 3171 3172 3173 3173 3174 3174 3174 3175 3175 3176 3176 3176 3177 3177 3178 3178 3179 3179 3180 3180 3180 3181 3181 3181 3181 3181 3181 3181 3182 3182 3182 3182 3182 3182 3182 3182 3182 3182 3182 3181 3181 3181 3181 3181 3181 3181 3181 3180 3180 3180 3180 3179 3179 3178 3178 3177 3177 3176 3176 3175 3174 3174 3173 3172 3171 3171 3170 3169 3168 3168 3167 3166 3165 3165 3164 3163 3163 3162 3161 3161 3160 3160 3159 3159 3158 3157 3157 3156 3156 3155 3155 3154 3154 3153 3153 3152 3151 3151 3151 3150 3149 3149
3170 3170 3171 3171 3172 3172 3173 3173 3173 3174 3174 3175 3175 3176 3176 3177 3177 3177 3178 3178 3179 3179 3180 3180 3180 3180 3180 3180 3180 3181 3181 3181 3181 3181 3181 3181 3181 3181 3181 3181 3181 3181 3181 3180 3180 3180 3180 3180 3180 3179 3179 3179 3178 3178 3177 3177 3176 3176 3176 3175 3174 3174 3173 3172 3172 3171 3170 3170 3169 3168 3167 3166 3166 3165 3164 3163 3163 3162 3161 3161 3160 3160 3159 3158 3158 3157 3157 3156 3156 3155 3154 3154 3154 3153 3152 3152 3151 3151 3150 3150 3149 3148 3148
3168 3169 3170 3170 3171 3171 3171 3172 3172 3172 3173 3174 3174 3175 3175 3176 3176 3176 3177 3177 3178 3178 3178 3179 3179 3179 3179 3179 3179 3179 3179 3180 3180 3180 3180 3180 3180 3180 3180 3180 3180 3180 3179 3179 3179 3179 3179 3179 3179 3178 3178 3178 3178 3177 3177 3176 3176 3175 3175 3174 3174 3173 3172 3172 3171 3170 3170 3169 3168 3167 3166 3166 3165 3164 3163 3163 3162 3161 3161 3160 3160 3159 3158 3158 3157 3156 3156 3155 3155 3154 3154 3153 3153 3152 3152 3151 3151 3150 3150 3149 3148 3148 3147
3167 3168 3168 3169 3169 3170 3170 3171 3171 3171 3172 3172 3173 3173 3174 3174 3175 3175 3176 3176 3176 3177 3177 3177 3178 3178 3178 3178 3178 3178 3178 3178 3178 3179 3179 3179 3179 3179 3179 3179 3179 3179 3178 3178 3178 3178 3178 3178 3178 3177 3177 3177 3177 3176 3176 3176 3175 3175 3174 3173 3173 3172 3171 3171 3170 3170 3169 3168 3167 3167 3166 3165 3165 3164 3163 3162 3161 3161 3160 3159 3159 3158 3157 3157 3156 3156 3155 3155 3154 3153 3153 3152 3152 3151 3151 3150 3150 3149 3149 3148 3147 3147 3146
3166 3166 3167 3167 3168 3168 3169 3169 3169 3170 3171 3171 3171 3172 3173 3173 3173 3174 3175 3175 3175 3176 3176 3176 3176 3176 3177 3177 3177 3177 3177 3177 3177 3177 3178 3178 3178 3178 3178 3177 3178 3177 3177 3177 3177 3177 3177 3177 3176 3176 3176 3176 3176 3176 3175 3175 3174 3174 3173 3172 3172 3171 3171 3170 3170 3169 3168 3168 3167 3166 3166 3165 3164 3163 3162 3162 3161 3160 3160 3159 3158 3157 3157 3156 3156 3155 3154 3154 3153 3153 3152 3151 3151 3151 3150 3150 3149 3148 3148 3147 3146 3146 3145
3164 3165 3166 3166 3166 3167 3167 3168 3168 3169 3169 3170 3170 3171 3171 3172 3172 3173 3173 3173 3174 3174 3174 3175 3175 3175 3175 3176 3176 3176 3176 3176 3176 3176 3176 3176 3176 3176 3176 3176 3176 3176 3176 3176 3176 3176 3176 3176 3176 3176 3175 3175 3175 3175 3174 3174 3173 3173 3172 3172 3171 3171 3170 3169 3169 3168 3168 3167 3166 3166 3165 3164 3163 3162 3162 3161 3160 3160 3159 3158 3157 3156 3156 3155 3155 3154 3154 3153 3152 3152 3151 3151 3150 3150 3149 3148 3148 3147 3147 3146 3146 3145 3144
3162 3163 3164 3165 3165 3166 3166 3166 3167 3167 3168 3168 3169 3170 3170 3170 3171 3171 3171 3172 3172 3172 3173 3173 3173 3173 3174 3174 3174 3175 3175 3175 3175 3175 3175 3175 3175 3175 3175 3175 3175 3175 3175 3175 3175 3175 3175 3175 3175 3175 3174 3174 3174 3173 3173 3173 3172 3172 3171 3171 3170 3170 3169 3169 3168 3167 3167 3166 3166 3165 3164 3163 3163 3162 3161 3160 3159 3159 3158 3157 3156 3156 3155 3155 3154 3153 3153 3152 3151 3151 3151 3150 3149 3149 3148 3147 3147 3146 3146 3145 3145 3144 3144
3161 3161 3162 3163 3163 3164 3164 3165 3165 3166 3166 3167 3167 3168 3168 3169 3169 3169 3170 3170 3170 3171 3171 3171 3171 3172 3172 3172 3172 3173 3173 3174 3174 3174 3174 3174 3174 3174 3174 3174 3174 3174 3174 3174 3174 3174 3173 3174 3174 3173 3173 3173 3173 3172 3172 3172 3171 3171 3171 3170 3170 3169 3168 3168 3167 3167 3166 3166 3165 3164 3163 3163 3162 3161 3160 3159 3159 3158 3157 3156 3156 3155 3154 3154 3153 3152 3152 3151 3151 3150 3150 3149 3148 3148 3147 3146 3146 3146 3145 3144 3144 3143 3143
3159 3160 3161 3161 3162 3162 3163 3163 3164 3164 3165 3165 3166 3166 3166 3167 3167 3167 3168 3168 3169 3169 3169 3170 3170 3170 3170 3171 3171 3171 3172 3172 3172 3172 3172 3173 3173 3173 3173 3173 3172 3172 3172 3172 3172 3172 3172 3172 3172 3172 3172 3172 3171 3171 3171 3171 3170 3170 3170 3169 3169 3168 3168 3167 3166 3166 3166 3165 3164 3163 3162 3162 3161 3160 3160 3159 3158 3157 3156 3156 3155 3154 3154 3153 3152 3151 3151 3151 3150 3149 3149 3148 3147 3147 3146 3146 3145 3145 3144 3144 3143 3142 3142
3157 3158 3159 3160 3160 3161 3161 3162 3162 3163 3163 3164 3164 3164 3165 3165 3166 3166 3166 3167 3167 3167 3167 3168 3168 3169 3169 3169 3169 3170 3170 3171 3171 3171 3171 3171 3171 3171 3171 3171 3171 3171 3171 3171 3171 3171 3171 3171 3171 3171 3171 3171 3170 3170 3170 3170 3169 3169 3169 3168 3168 3167 3167 3166 3166 3165 3165 3164 3163 3162 3162 3161 3160 3159 3159 3158 3157 3156 3156 3155 3154 3153 3153 3152 3151 3151 3150 3150 3149 3148 3148 3147 3146 3146 3145 3145 3144 3144 3143 3143 3142 3141 3141
3156 3156 3157 3157 3158 3159 3159 3160 3160 3161 3161 3162 3162 3163 3163 3163 3164 3164 3165 3165 3165 3165 3166 3166 3166 3167 3167 3167 3167 3168 3168 3169 3169 3169 3169 3170 3170 3170 3170 3170 3169 3169 3169 3169 3169 3169 3169 3169 3169 3170 3170 3169 3169 3169 3169 3168 3168 3168 3167 3167 3167 3166 3166 3165 3165 3164 3164 3163 3162 3161 3161 3160 3159 3158 3158 3157 3156 3155 3155 3154 3153 3152 3152 3151 3151 3150 3149 3149 3148 3147 3147 3146 3146 3145 3144 3144 3143 3143 3142 3142 3141 3141 3140
3154 3154 3155 3156 3156 3157 3157 3158 3158 3159 3159 3160 3160 3161 3161 3162 3162 3162 3163 3163 3163 3163 3164 3164 3164 3165 3165 3165 3166 3166 3166 3167 3167 3167 3167 3167 3168 3168 3168 3168 3167 3167 3167 3167 3167 3167 3167 3168 3168 3168 3168 3168 3168 3168 3167 3167 3167 3167 3166 3166 3166 3165 3165 3164 3164 3163 3163 3162 3161 3161 3160 3159 3158 3157 3156 3156 3155 3154 3154 3153 3152 3151 3151 3150 3150 3149 3148 3148 3147 3146 3146 3145 3145 3144 3143 3143 3142 3142 3141 3141 3140 3139 3139
3152 3153 3153 3154 3154 3155 3155 3156 3156 3157 3157 3157 3158 3159 3159 3160 3160 3160 3161 3161 3161 3161 3162 3162 3162 3162 3163 3163 3164 3164 3164 3165 3165 3165 3165 3165 3166 3166 3166 3166 3166 3165 3165 3166 3166 3166 3166 3166 3166 3166 3166 3166 3166 3166 3166 3166 3166 3166 3165 3165 3165 3164 3164 3163 3163 3162 3162 3161 3161 3160 3159 3158 3157 3156 3156 3155 3154 3153 3153 3152 3151 3151 3150 3149 3148 3148 3147 3147 3146 3146 3145 3144 3144 3143 3142 3142 3141 3141 3140 3139 3139 3138 3138
3151 3151 3151 3152 3152 3153 3153 3154 3154 3154 3155 3155 3156 3156 3157 3157 3158 3158 3159 3159 3159 3159 3160 3160 3160 3160 3161 3161 3161 3161 3161 3162 3162 3162 3162 3162 3163 3164 3164 3163 3163 3163 3164 3164 3164 3164 3164 3163 3164 3165 3165 3165 3165 3165 3165 3165 3165 3164 3164 3164 3163 3163 3163 3162 3161 3161 3161 3160 3159 3158 3158 3157 3156 3155 3155 3154 3153 3152 3152 3151 3150 3150 3149 3148 3147 3147 3146 3146 3145 3145 3144 3143 3143 3142 3141 3141 3140 3139 3139 3138 3137 3137 3136
3149 3149 3149 3150 3151 3151 3152 3152 3152 3152 3152 3153 3153 3154 3155 3155 3156 3156 3156 3157 3157 3157 3157 3157 3158 3158 3158 3159 3159 3159 3159 3159 3160 3160 3160 3160 3161 3161 3161 3161 3161 3161 3161 3162 3162 3163 3162 3161 3162 3163 3163 3163 3163 3163 3163 3163 3163 3163 3163 3162 3162 3162 3161 3161 3160 3160 3159 3158 3158 3157 3156 3156 3155 3154 3154 3153 3152 3151 3151 3150 3149 3148 3148 3147 3146 3146 3145 3144 3144 3143 3143 3142 3141 3141 3140 3139 3139 3138 3137 3137 3136 3136 3135
3146 3146 3147 3148 3149 3150 3150 3150 3150 3150 3150 3151 3151 3152 3152 3153 3153 3154 3154 3155 3155 3155 3156 3156 3156 3156 3156 3156 3156 3156 3156 3156 3157 3157 3157 3158 3158 3159 3158 3158 3159 3159 3160 3160 3161 3161 3160 3160 3161 3161 3161 3161 3161 3162 3161 3161 3161 3161 3161 3161 3161 3161 3160 3160 3159 3158 3157 3157 3156 3156 3155 3155 3154 3153 3153 3152 3151 3151 3150 3149 3148 3147 3146 3146 3145 3144 3144 3143 3142 3142 3141 3141 3141 3140 3139 3138 3137 3137 3136 3136 3135 3134 3134
3144 3145 3146 3146 3147 3147 3147 3148 3148 3148 3148 3148 3149 3149 3149 3150 3151 3151 3151 3152 3152 3153 3153 3153 3153 3153 3154 3154 3154 3154 3154 3154 3154 3154 3155 3155 3156 3156 3156 3156 3156 3157 3158 3158 3158 3158 3157 3159 3160 3160 3159 3158 3159 3160 3160 3160 3160 3160 3160 3160 3159 3159 3158 3158 3157 3157 3156 3156 3155 3155 3154 3154 3153 3152 3151 3151 3150 3150 3149 3148 3147 3146 3145 3145 3144 3143 3142 3142 3141 3141 3140 3140 3139 3138 3138 3137 3136 3136 3135 3134 3133 3133 3132
3142 3143 3144 3145 3145 3145 3145 3145 3145 3146 3146 3146 3146 3146 3147 3147 3148 3148 3149 3149 3150 3150 3150 3151 3151 3151 3151 3151 3151 3151 3151 3151 3151 3151 3152 3152 3152 3153 3154 3154 3154 3155 3155 3155 3155 3155 3156 3157 3158 3158 3157 3157 3157 3158 3158 3158 3158 3158 3158 3158 3157 3157 3157 3156 3156 3156 3155 3155 3154 3154 3153 3153 3152 3151 3151 3150 3149 3148 3147 3147 3146 3145 3144 3143 3143 3142 3141 3141 3140 3139 3139 3138 3138 3137 3136 3136 3135 3134 3133 3133 3132 3131 3131
3140 3141 3141 3142 3142 3142 3142 3142 3142 3143 3143 3143 3143 3144 3144 3145 3145 3146 3146 3146 3147 3147 3147 3148 3148 3149 3149 3149 3149 3149 3149 3149 3149 3148 3149 3149 3150 3150 3151 3151 3152 3152 3153 3153 3153 3153 3154 3156 3156 3156 3156 3156 3156 3156 3156 3156 3157 3157 3157 3156 3156 3156 3156 3155 3155 3154 3154 3153 3153 3152 3152 3151 3151 3150 3149 3149 3148 3147 3146 3146 3145 3144 3143 3142 3141 3141 3140 3139 3139 3138 3137 3137 3136 3136 3135 3134 3133 3133 3132 3131 3131 3130 3130
3137 3138 3138 3139 3139 3139 3139 3139 3139 3140 3140 3140 3141 3141 3141 3142 3142 3143 3144 3144 3144 3145 3145 3145 3146 3146 3146 3146 3146 3146 3147 3147 3146 3146 3146 3147 3148 3148 3149 3149 3150 3150 3151 3151 3151 3152 3153 3153 3154 3154 3154 3154 3154 3154 3154 3154 3155 3156 3155 3155 3155 3154 3154 3153 3153 3152 3152 3151 3151 3151 3151 3150 3150 3149 3148 3147 3147 3146 3145 3144 3143 3142 3141 3141 3140 3139 3139 3138 3137 3137 3136 3136 3135 3134 3134 3133 3132 3131 3131 3130 3129 3129 3128